Location: Bidwell Hollow
(37.7387°N, 90.1707°W)
Time: 22:56:10
(UTC+00:00)

Transit 2A - Pass Details

Date: 11 May 2026
Orbit: 595 x 949 km, 66.7° (Epoch: 6 June)

Event Time Altitude Azimuth Distance (km) Brightness Sun altitude
Rises 08:06:18 0° 328° (NNW) 3,138 9.5 -26.6°
Reaches altitude 10° 08:08:47 10° 325° (NW) 2,158 8.5 -26.3°
Enters shadow 08:11:41 34° 312° (NW) 1,092 6.8 -26.0°
